St. Thomas, VI

5:56 PM AST on June 27, 2017 (GMT -0400)
King

Weather History for TIST - August, 2014

Change the Weather History Date:

Monday, August 11, 2014

  Actual Average Record
Temperature  
Mean Temperature 84 °F 84 °F  
Max Temperature 89 °F 90 °F 96 °F (1993)
Min Temperature 79 °F 78 °F 71 °F (1956)
Degree Days  
Heating Degree Days 0 0  
Month to date heating degree days 0 0  
Since 1 June heating degree days 0 0  
Since 1 July heating degree days 0 0  
Cooling Degree Days 19 19  
Month to date cooling degree days 208 209  
Year to date cooling degree days 3613 3605  
Since 1 June cooling degree days 1390 1353  
Growing Degree Days 34 (Base 50)    
Moisture  
Dew Point 77 °F    
Average Humidity 81    
Maximum Humidity 94    
Minimum Humidity 68    
Precipitation  
Precipitation T in 0.11 in 1.76 in (1989)
Month to date precipitation 1.61 1.16  
Year to date precipitation 15.80 17.57  
Sea Level Pressure  
Sea Level Pressure 30.01 in    
Wind  
Wind Speed 12 mph (ESE)    
Max Wind Speed 23 mph    
Max Gust Speed 29 mph    
Visibility 10 miles    
Events      
T = Trace of Precipitation, MM = Missing Value Source: NWS Daily Summary

Daily Weather History Graph

Daily Weather History Graph

Search for Another Location

Airport or City:

Trip Planner

Search our weather history database for the weather conditions in past years. The results will help you decide how hot, cold, wet, or windy it might be!

Date:

Astronomy

Aug. 11, 2014 Rise Set
Actual Time 6:00 AM AST 6:49 PM AST
Civil Twilight 5:37 AM AST 7:11 PM AST
Nautical Twilight 5:11 AM AST 7:38 PM AST
Astronomical Twilight 4:43 AM AST 8:05 PM AST
Moon 7:35 PM AST (8/11) 6:45 AM AST (8/11)
Length of Visible Light 13h 33m
Length of Day
12h 48m
Full, 99% of the Moon is Illuminated
Aug 11
Full
Aug 17
Last Quarter
Aug 25
New
Sep 2
First Quarter
Sep 8
Full

Hourly Weather History & Observations

Time (AST) Temp. Heat Index Dew Point Humidity Pressure Visibility Wind Dir Wind Speed Gust Speed Precip Events Conditions
12:53 AM 80.1 °F 85.8 °F 77.0 °F 90% 30.03 in 10.0 mi East 10.4 mph - N/A   Unknown
1:53 AM 80.1 °F 85.4 °F 75.9 °F 87% 30.01 in 10.0 mi East 9.2 mph - 0.00 in   Unknown
2:53 AM 79.0 °F - 75.9 °F 90% 30.01 in 10.0 mi East 12.7 mph - N/A   Unknown
3:53 AM 80.1 °F 86.4 °F 78.1 °F 94% 30.00 in 10.0 mi East 6.9 mph - 0.00 in   Unknown
4:53 AM 81.0 °F 87.9 °F 77.0 °F 88% 30.00 in 10.0 mi East 9.2 mph - N/A   Unknown
5:35 AM 80.6 °F 87.1 °F 77.0 °F 89% 30.00 in 10.0 mi East 6.9 mph - N/A   Overcast
5:53 AM 81.0 °F 87.9 °F 77.0 °F 88% 30.00 in 10.0 mi East 8.1 mph - N/A   Overcast
6:29 AM 82.4 °F 92.4 °F 78.8 °F 89% 29.99 in 10.0 mi East 6.9 mph - N/A   Overcast
6:46 AM 82.4 °F 92.4 °F 78.8 °F 89% 30.00 in 10.0 mi East 5.8 mph - N/A   Unknown
6:53 AM 82.0 °F 91.0 °F 78.1 °F 88% 30.01 in 10.0 mi East 6.9 mph - N/A   Unknown
7:53 AM 84.9 °F 95.3 °F 77.0 °F 77% 30.01 in 10.0 mi East 12.7 mph 20.7 mph N/A   Unknown
8:02 AM 84.2 °F 96.1 °F 78.8 °F 84% 30.02 in 10.0 mi East 11.5 mph - N/A   Overcast
8:31 AM 86.0 °F 96.9 °F 77.0 °F 74% 30.03 in 10.0 mi East 13.8 mph 24.2 mph N/A   Overcast
8:38 AM 86.0 °F 96.9 °F 77.0 °F 74% 30.03 in 10.0 mi East 13.8 mph - N/A   Unknown
8:53 AM 86.0 °F 96.9 °F 77.0 °F 74% 30.03 in 10.0 mi East 12.7 mph - N/A   Partly Cloudy
9:53 AM 87.1 °F 99.8 °F 78.1 °F 74% 30.04 in 10.0 mi East 17.3 mph 25.3 mph N/A   Scattered Clouds
10:53 AM 89.1 °F 101.4 °F 77.0 °F 67% 30.03 in 10.0 mi ESE 12.7 mph - N/A   Unknown
11:53 AM 88.0 °F 100.2 °F 77.0 °F 70% 30.04 in 10.0 mi SE 15.0 mph 26.5 mph N/A   Scattered Clouds
12:53 PM 88.0 °F 100.2 °F 77.0 °F 70% 30.03 in 10.0 mi SE 18.4 mph 25.3 mph N/A   Scattered Clouds
1:53 PM 88.0 °F 100.2 °F 77.0 °F 70% 30.01 in 10.0 mi SE 15.0 mph 25.3 mph N/A   Scattered Clouds
2:00 PM 87.8 °F 99.7 °F 77.0 °F 70% 30.00 in 10.0 mi SE 18.4 mph 21.9 mph N/A   Overcast
2:07 PM 87.8 °F 97.6 °F 75.2 °F 66% 30.00 in 10.0 mi SE 17.3 mph 26.5 mph N/A   Scattered Clouds
2:53 PM 88.0 °F 100.2 °F 77.0 °F 70% 29.99 in 10.0 mi SE 13.8 mph - N/A   Scattered Clouds
3:00 PM 87.8 °F 99.7 °F 77.0 °F 70% 29.98 in 10.0 mi SE 17.3 mph - N/A   Overcast
3:14 PM 87.8 °F 99.7 °F 77.0 °F 70% 29.98 in 10.0 mi SE 16.1 mph 25.3 mph N/A   Mostly Cloudy
3:53 PM 87.1 °F 98.8 °F 77.0 °F 72% 29.99 in 10.0 mi SE 17.3 mph 24.2 mph N/A   Mostly Cloudy
4:00 PM 87.8 °F 102.5 °F 78.8 °F 75% 29.98 in 10.0 mi SE 21.9 mph 28.8 mph N/A   Overcast
4:09 PM 86.0 °F 96.9 °F 77.0 °F 74% 29.98 in 10.0 mi ESE 19.6 mph - N/A   Overcast
4:53 PM 87.1 °F 97.3 °F 75.9 °F 69% 29.99 in 10.0 mi SE 13.8 mph 25.3 mph N/A   Unknown
5:53 PM 86.0 °F 95.1 °F 75.0 °F 70% 29.99 in 10.0 mi ESE 13.8 mph - N/A   Scattered Clouds
6:53 PM 84.9 °F 94.1 °F 75.9 °F 74% 30.01 in 10.0 mi ESE 8.1 mph - N/A   Scattered Clouds
7:53 PM 84.0 °F 92.6 °F 75.9 °F 76% 30.01 in 10.0 mi East 9.2 mph - N/A   Scattered Clouds
8:53 PM 84.0 °F 93.7 °F 77.0 °F 79% 30.01 in 10.0 mi East 15.0 mph - N/A   Unknown
9:53 PM 82.9 °F 91.8 °F 77.0 °F 82% 30.03 in 10.0 mi East 15.0 mph - N/A   Scattered Clouds
10:53 PM 82.9 °F 91.8 °F 77.0 °F 82% 30.04 in 10.0 mi East 12.7 mph - N/A   Unknown
11:53 PM 82.9 °F 91.8 °F 77.0 °F 82% 30.04 in 10.0 mi East 11.5 mph - N/A   Unknown